Clarksburg, WV

11:48 PM EDT on October 13, 2019 (GMT -0400)
Benedum

Weather History for KCKB - September, 2019

Change the Weather History Date:

Sunday, September 22, 2019

  Actual Average Record
Temperature  
Mean Temperature 77 °F -  
Max Temperature 92 °F 73 °F 93 °F (1931)
Min Temperature 62 °F 52 °F 31 °F (1956)
Cooling Degree Days 12    
Month to date cooling degree days 189  
Year to date cooling degree days 1226  
Growing Degree Days 26 (Base 50)    
Moisture  
Dew Point 60 °F    
Average Humidity 60    
Maximum Humidity 87    
Minimum Humidity 32    
Precipitation  
Precipitation 0.00 in - - ()
Month to date precipitation 0.06  
Year to date precipitation 31.57  
Sea Level Pressure  
Sea Level Pressure 30.14 in    
Wind  
Wind Speed 3 mph (SW)    
Max Wind Speed 15 mph    
Max Gust Speed 19 mph    
Visibility 6 miles    
Events      
Averages and records for this station are not official NWS values.
T = Trace of Precipitation, MM = Missing Value Source: NWS Daily Summary

Daily Weather History Graph

Daily Weather History Graph

Search for Another Location

Airport or City:

Astronomy

Sep. 22, 2019 Rise Set
Actual Time 7:08 AM EDT 7:18 PM EDT
Civil Twilight 6:41 AM EDT 7:45 PM EDT
Nautical Twilight 6:10 AM EDT 8:16 PM EDT
Astronomical Twilight 5:38 AM EDT 8:48 PM EDT
Moon No Moon Rise 3:09 PM EDT (9/22)
Length of Visible Light 13h 03m
Length of Day
12h 09m
Last Quarter, 44% of the Moon is Illuminated
Sep 22
Last Quarter
Sep 28
New
Oct 5
First Quarter
Oct 13
Full
Oct 21
Last Quarter

Hourly Weather History & Observations

Time (EDT) Temp. Heat Index Dew Point Humidity Pressure Visibility Wind Dir Wind Speed Gust Speed Precip Events Conditions
12:53 AM 66.9 °F - 63.0 °F 87% 30.17 in 6.0 mi Calm Calm - N/A   Clear
1:53 AM 66.9 °F - 63.0 °F 87% 30.17 in 6.0 mi Calm Calm - N/A   Clear
2:53 AM 66.0 °F - 62.1 °F 87% 30.16 in 5.0 mi Calm Calm - N/A   Clear
3:53 AM 64.9 °F - 61.0 °F 87% 30.15 in 6.0 mi Calm Calm - N/A   Clear
4:53 AM 64.0 °F - 61.0 °F 90% 30.16 in 2.5 mi Calm Calm - N/A   Clear
5:20 AM 63.0 °F - 61.0 °F 93% 30.21 in 3.0 mi Calm Calm - N/A   Clear
5:23 AM 64.0 °F - 60.1 °F 87% 30.20 in 1.8 mi Calm Calm - N/A   Clear
5:41 AM 64.0 °F - 61.0 °F 90% 30.21 in 1.5 mi Calm Calm - N/A   Clear
5:51 AM 64.4 °F - 60.8 °F 88% 30.20 in 1.2 mi Calm Calm - N/A   Partly Cloudy
5:53 AM 64.0 °F - 61.0 °F 90% 30.17 in 1.2 mi Calm Calm - N/A   Partly Cloudy
6:01 AM 64.0 °F - 60.1 °F 87% 30.21 in 4.0 mi Calm Calm - N/A   Clear
6:16 AM 64.0 °F - 61.0 °F 90% 30.20 in 1.5 mi Calm Calm - N/A   Clear
6:18 AM 63.0 °F - 61.0 °F 93% 30.20 in 0.8 mi Calm Calm - N/A   Mist
6:26 AM 63.0 °F - 60.1 °F 90% 30.20 in 1.2 mi Calm Calm - N/A   Partly Cloudy
6:35 AM 63.0 °F - 60.1 °F 90% 30.20 in 0.8 mi Calm Calm - N/A   Mist
6:39 AM 63.0 °F - 60.1 °F 90% 30.20 in 1.2 mi Calm Calm - N/A   Partly Cloudy
6:44 AM 63.0 °F - 60.1 °F 90% 30.21 in 3.0 mi Calm Calm - N/A   Partly Cloudy
6:53 AM 64.0 °F - 60.1 °F 87% 30.17 in 4.0 mi Calm Calm - N/A   Clear
6:57 AM 63.0 °F - 60.1 °F 90% 30.20 in 1.8 mi Calm Calm - N/A   Clear
7:10 AM 62.1 °F - 59.0 °F 90% 30.21 in 3.0 mi Calm Calm - N/A   Clear
7:19 AM 63.0 °F - 60.1 °F 90% 30.20 in 1.8 mi Calm Calm - N/A   Clear
7:29 AM 63.0 °F - 60.1 °F 90% 30.20 in 3.0 mi Calm Calm - N/A   Clear
7:53 AM 64.9 °F - 61.0 °F 87% 30.17 in 4.0 mi Calm Calm - N/A   Clear
8:53 AM 70.0 °F - 63.0 °F 78% 30.18 in 9.0 mi Calm Calm - N/A   Clear
9:53 AM 75.9 °F - 64.0 °F 67% 30.18 in 10.0 mi Calm Calm - N/A   Clear
10:53 AM 82.0 °F 83.1 °F 63.0 °F 52% 30.16 in 10.0 mi Variable 4.6 mph - N/A   Clear
11:53 AM 88.0 °F 88.4 °F 62.1 °F 42% 30.13 in 10.0 mi SSW 8.1 mph - N/A   Clear
12:53 PM 91.0 °F 90.0 °F 57.9 °F 33% 30.10 in 10.0 mi West 6.9 mph - N/A   Clear
1:53 PM 91.0 °F 90.0 °F 57.9 °F 33% 30.07 in 10.0 mi SW 11.5 mph 17.3 mph N/A   Partly Cloudy
2:53 PM 91.9 °F 90.8 °F 57.9 °F 32% 30.05 in 10.0 mi SW 8.1 mph 16.1 mph N/A   Scattered Clouds
3:53 PM 90.0 °F 88.8 °F 57.9 °F 34% 30.03 in 10.0 mi SSW 11.5 mph - N/A   Partly Cloudy
4:53 PM 90.0 °F 88.6 °F 57.0 °F 33% 30.02 in 10.0 mi WSW 8.1 mph - N/A   Clear
5:53 PM 89.1 °F 88.0 °F 57.9 °F 35% 30.01 in 10.0 mi SSW 9.2 mph - N/A   Partly Cloudy
6:53 PM 84.0 °F 83.3 °F 57.0 °F 40% 30.01 in 10.0 mi SW 6.9 mph - N/A   Clear
7:53 PM 82.0 °F 82.0 °F 57.9 °F 44% 30.00 in 10.0 mi SSE 3.5 mph - N/A   Clear
8:53 PM 75.9 °F - 59.0 °F 56% 30.00 in 10.0 mi Calm Calm - N/A   Clear
9:53 PM 72.0 °F - 59.0 °F 64% 29.99 in 10.0 mi Calm Calm - N/A   Clear
10:53 PM 70.0 °F - 60.1 °F 71% 29.99 in 10.0 mi Calm Calm - N/A   Clear
11:53 PM 68.0 °F - 61.0 °F 78% 29.98 in 10.0 mi Calm Calm - N/A   Clear